Wind_Speed
12 12 12 12 12 12 12 10 9 9 9 9 9 9 10 10 11 11 11 11 11 11 11 12 12 13 13 14 14 14 15 16 17 17 19 19 20 20 21 21 22 22 23
13 13 13 12 12 12 12 10 10 10 10 9 9 10 10 11 11 11 11 12 12 12 12 13 13 14 14 15 15 15 16 17 17 18 19 20 20 20 20 22 23 23 24
13 13 13 13 13 13 12 11 11 11 10 10 10 10 11 11 11 11 11 12 13 13 13 13 14 15 15 15 16 16 17 17 18 19 20 21 21 21 22 22 23 24 24
14 13 13 14 13 13 14 13 12 12 11 11 11 11 11 11 12 12 12 12 13 14 14 15 15 16 16 16 17 17 18 18 19 19 20 20 21 22 23 23 24 25 25
14 14 14 14 14 14 14 14 14 14 13 13 12 12 13 13 13 13 13 13 13 14 15 16 16 17 18 18 18 19 19 20 20 20 20 20 21 22 23 24 25 25 26
14 14 15 15 15 15 15 15 15 14 14 14 14 14 14 14 14 14 14 14 15 15 16 17 17 18 18 19 20 20 20 20 20 20 21 21 22 23 23 25 26 26 27
16 16 15 16 16 16 16 16 15 15 15 15 15 15 15 15 15 15 15 16 16 17 18 18 19 20 20 20 21 21 21 21 22 23 23 24 24 25 25 26 27 28 29
17 17 16 16 16 17 17 16 16 16 16 17 17 17 16 16 16 16 16 17 18 19 20 20 20 21 22 22 22 22 23 23 24 24 25 26 26 27 28 29 30 30 31
18 18 17 17 17 17 18 18 17 17 18 19 18 17 16 16 16 17 18 18 19 20 20 22 22 22 23 24 24 25 25 26 26 26 27 28 28 30 30 31 31 31 32
18 18 17 17 17 18 18 18 19 19 19 19 17 17 17 17 17 18 18 19 20 20 22 22 23 23 24 24 24 25 26 27 27 28 28 29 30 30 31 31 32 32 33
19 18 18 18 19 19 19 19 20 20 18 17 16 16 17 17 18 19 20 20 21 22 23 23 24 24 24 25 25 26 27 28 29 29 30 30 30 31 31 32 33 33 33
20 19 18 19 20 20 20 20 20 19 17 17 17 17 17 18 18 19 21 21 22 23 23 24 25 26 27 27 28 28 29 30 30 31 31 31 31 31 32 32 33 33 33
20 19 19 20 20 20 20 20 20 19 18 17 17 18 18 18 19 20 21 22 22 23 24 25 26 27 28 29 29 30 30 31 31 31 31 31 31 32 32 33 33 33 33
20 20 21 21 22 21 21 20 20 20 20 19 19 18 19 19 20 20 21 22 23 24 25 26 27 28 29 29 30 31 31 31 31 31 31 31 32 32 33 34 34 34 34
22 22 23 23 23 23 22 21 21 21 20 20 20 20 20 20 21 21 22 23 24 25 26 27 28 29 29 30 31 32 32 32 32 32 33 33 33 33 34 35 35 35 35
24 24 25 24 24 23 22 22 22 23 22 22 21 21 21 21 22 23 24 25 26 27 27 28 29 30 31 32 32 32 32 33 33 34 34 34 34 34 34 35 35 35 35
25 26 25 24 23 23 23 23 23 24 23 23 22 22 22 23 24 25 25 26 27 28 28 29 30 31 32 33 33 33 33 34 34 35 35 35 35 35 35 35 35 35 35
27 27 26 25 25 25 25 25 25 25 25 24 24 24 24 25 26 26 27 27 28 29 30 31 31 32 32 33 33 33 34 34 35 35 35 35 35 35 36 35 35 34 34
28 28 27 27 26 26 27 27 27 27 26 26 26 25 25 26 27 27 28 28 29 30 31 32 32 32 32 32 33 34 34 35 35 35 34 34 35 35 35 35 34 34 33
29 28 29 28 28 28 28 28 28 28 27 27 27 27 26 27 27 28 28 29 30 31 31 32 32 33 32 33 34 34 35 35 35 35 35 35 35 35 35 35 34 34 33
30 30 30 29 29 29 29 30 30 28 27 27 28 27 27 28 28 28 29 30 31 31 32 33 34 34 33 34 34 35 36 36 36 35 35 35 35 35 35 34 34 33 32
31 31 31 30 30 30 30 30 29 28 27 28 28 27 27 28 28 29 30 30 31 33 34 34 35 35 35 35 35 36 36 36 36 35 35 35 35 35 34 34 33 32 32
32 32 32 31 31 31 31 30 29 29 29 29 28 28 28 28 29 30 31 32 33 33 34 35 35 35 35 35 35 35 36 36 36 36 35 35 34 34 33 33 33 33 33
32 32 32 32 31 31 31 30 30 30 30 30 30 30 29 29 30 31 32 33 33 34 35 35 35 35 35 35 35 35 35 35 35 35 35 35 35 34 33 33 33 33 33
32 32 32 31 31 31 30 30 30 31 31 30 30 30 30 30 31 32 32 32 33 34 35 35 35 35 35 35 35 35 35 35 35 34 35 35 34 34 34 34 34 33 33
33 32 31 31 30 30 30 30 30 30 30 30 31 30 30 30 31 31 31 32 33 34 35 35 35 35 35 35 35 35 35 35 34 34 34 34 34 34 34 34 34 33 32
Wind_Direction
335 336 333 331 331 331 330 328 326 324 318 315 314 320 320 317 313 310 311 311 311 312 316 318 317 317 319 318 315 310 304 300 299 300 303 301 299 298 296 296 299 300 300
334 333 331 328 329 329 328 328 325 320 318 318 318 319 320 319 317 311 307 308 310 313 315 315 314 315 314 316 315 313 311 306 304 303 303 303 303 302 301 301 301 302 301
332 330 329 327 326 327 327 324 324 322 320 318 317 317 318 319 320 319 314 309 311 313 314 317 316 315 314 312 314 314 314 310 308 304 302 302 304 304 302 302 302 302 302
330 326 325 327 327 327 326 323 319 319 316 314 313 315 315 316 318 321 323 321 318 314 313 316 316 315 315 315 314 314 314 312 310 308 304 304 303 304 302 303 304 303 302
328 326 324 324 324 322 321 319 315 314 312 308 311 313 314 313 312 313 317 319 320 317 314 315 314 315 315 316 316 316 316 315 313 313 310 307 306 306 304 305 305 305 305
324 323 320 319 319 318 317 315 312 311 309 307 308 309 310 311 310 310 310 312 313 315 316 317 316 315 315 314 314 314 315 315 314 313 309 308 307 306 304 306 306 306 306
320 318 317 317 318 317 315 314 313 310 308 305 306 306 307 308 307 307 309 310 312 312 312 313 314 314 313 312 312 314 314 314 313 311 309 307 307 305 304 305 305 305 304
317 315 314 314 316 315 313 312 311 311 310 307 305 303 302 303 304 305 307 310 311 311 312 313 313 312 312 311 310 311 312 311 309 307 306 306 305 304 304 305 305 305 305
314 313 312 313 315 314 312 313 310 310 310 308 306 301 300 300 302 304 306 308 310 311 312 313 314 314 314 313 312 311 311 310 308 307 307 306 305 304 305 306 306 306 306
310 310 310 312 313 314 313 313 312 311 310 308 307 303 298 299 301 303 306 308 309 310 311 312 314 315 316 315 313 312 311 310 309 308 308 307 306 306 306 306 307 307 306
307 309 310 309 311 312 312 313 313 315 314 311 309 308 303 300 301 303 306 308 309 310 311 312 313 315 316 316 316 315 313 312 312 311 309 307 306 306 307 306 306 306 306
304 305 307 308 309 310 311 311 312 313 312 311 309 309 308 305 304 305 307 309 309 310 311 313 314 314 313 315 315 314 314 313 312 312 310 308 307 307 308 308 308 308 307
302 303 305 308 310 309 309 310 310 310 309 309 309 309 309 308 307 307 308 309 312 312 312 314 314 314 315 315 315 315 314 314 313 312 312 310 309 309 309 309 309 308 307
299 300 302 305 308 309 307 307 309 308 306 307 307 306 306 307 308 309 311 311 311 312 312 314 315 315 315 316 316 315 315 315 314 312 311 310 309 309 308 308 308 307 306
296 298 300 302 305 305 304 304 307 307 304 305 305 306 306 307 308 310 311 311 311 312 313 314 316 316 316 316 316 315 315 314 314 313 311 311 310 309 308 308 308 307 306
293 295 297 297 300 301 301 303 304 304 304 304 305 305 305 305 306 308 309 310 311 312 313 314 315 315 316 317 316 315 314 314 313 312 311 311 310 310 309 309 308 308 307
291 293 294 295 296 298 298 300 301 303 303 303 303 303 302 302 304 306 307 308 310 312 313 313 314 316 317 317 317 316 315 314 313 312 311 310 311 311 311 311 310 309 308
288 290 292 292 293 296 297 298 299 299 301 300 299 299 300 301 303 306 308 309 310 311 312 313 314 315 317 318 317 316 316 315 314 313 312 312 311 311 312 311 311 310 309
286 288 290 291 292 293 294 296 297 299 300 299 298 298 299 300 302 305 307 308 309 310 311 312 313 315 316 317 316 316 316 315 314 313 313 313 313 312 312 311 311 311 310
284 287 288 289 292 293 293 295 297 298 298 298 297 296 297 299 300 303 305 307 308 309 311 312 313 314 315 316 316 316 316 315 314 313 313 312 312 311 311 311 311 311 311
282 285 288 289 290 291 292 293 295 295 295 295 296 296 295 296 298 302 304 305 307 308 309 310 311 312 313 314 315 314 314 315 315 314 313 312 311 311 312 312 313 312 311
280 282 284 286 287 289 292 293 293 292 293 294 294 295 295 296 297 300 303 305 306 307 308 309 311 312 313 314 314 314 314 314 314 314 313 312 312 313 313 313 313 313 312
280 281 283 284 285 287 289 290 291 291 291 291 292 294 296 297 298 300 302 304 306 306 307 309 311 312 313 313 314 314 314 314 313 314 314 314 314 314 313 313 312 312 312
280 281 282 283 284 286 287 288 289 290 290 291 291 292 294 296 297 300 301 303 304 305 307 308 309 310 312 313 313 314 314 313 313 313 313 313 313 314 314 313 313 313 312
278 280 281 282 283 285 286 287 288 288 288 288 289 291 293 296 298 300 301 302 304 306 307 307 308 311 312 312 313 313 313 313 314 314 313 313 313 313 313 313 313 312 312
277 279 280 282 282 284 285 286 287 288 288 288 288 291 293 296 299 300 302 304 305 306 307 308 310 311 312 312 313 314 314 313 313 314 314 313 313 313 313 313 313 312 312
Height
5907 5906 5904 5902 5901 5900 5899 5897 5896 5895 5894 5893 5892 5891 5890 5890 5888 5887 5886 5885 5884 5883 5881 5880 5878 5877 5875 5874 5872 5870 5869 5868 5866 5865 5863 5862 5860 5859 5857 5855 5854 5852 5850
5906 5904 5903 5902 5900 5899 5897 5896 5895 5894 5893 5892 5891 5890 5889 5888 5886 5885 5884 5883 5882 5881 5879 5878 5876 5874 5872 5870 5869 5867 5865 5863 5862 5861 5859 5857 5855 5854 5852 5850 5848 5846 5844
5905 5903 5902 5901 5899 5898 5896 5895 5893 5892 5891 5890 5889 5888 5887 5886 5884 5883 5881 5881 5880 5878 5877 5875 5873 5872 5870 5868 5866 5864 5861 5860 5858 5856 5854 5852 5850 5848 5847 5845 5843 5840 5838
5904 5902 5901 5900 5898 5896 5895 5893 5892 5891 5889 5888 5887 5886 5885 5884 5882 5881 5879 5878 5877 5875 5874 5872 5871 5869 5866 5864 5862 5860 5858 5855 5853 5852 5850 5847 5845 5843 5841 5838 5836 5834 5832
5903 5901 5900 5898 5897 5895 5893 5892 5890 5889 5887 5886 5885 5884 5883 5881 5880 5878 5877 5876 5874 5872 5871 5869 5867 5865 5863 5861 5859 5856 5854 5851 5849 5847 5845 5843 5840 5837 5835 5832 5830 5828 5825
5901 5900 5898 5897 5895 5893 5891 5889 5888 5886 5885 5884 5883 5881 5880 5878 5877 5876 5874 5873 5871 5869 5868 5866 5864 5862 5860 5857 5855 5852 5850 5847 5845 5842 5840 5837 5835 5832 5829 5827 5824 5822 5819
5899 5897 5896 5894 5892 5891 5889 5887 5885 5884 5882 5881 5880 5878 5877 5875 5874 5873 5871 5870 5868 5866 5864 5863 5860 5858 5856 5853 5851 5848 5845 5842 5840 5837 5835 5832 5829 5826 5823 5820 5817 5814 5811
5896 5895 5893 5891 5890 5888 5886 5884 5882 5881 5879 5878 5876 5875 5873 5872 5871 5869 5868 5866 5865 5863 5861 5859 5856 5854 5851 5849 5846 5844 5841 5838 5835 5832 5829 5826 5822 5820 5817 5814 5810 5806 5803
5893 5892 5890 5888 5887 5885 5883 5881 5879 5878 5876 5874 5872 5870 5869 5868 5867 5866 5864 5863 5861 5859 5857 5854 5852 5849 5846 5844 5841 5838 5835 5832 5829 5826 5823 5819 5816 5813 5809 5806 5802 5799 5795
5890 5888 5887 5885 5884 5882 5880 5878 5876 5874 5872 5870 5868 5866 5865 5864 5863 5862 5860 5859 5857 5855 5853 5850 5847 5844 5841 5839 5836 5833 5829 5826 5822 5819 5816 5812 5809 5805 5802 5798 5794 5790 5787
5887 5885 5883 5882 5880 5878 5876 5875 5873 5870 5868 5866 5865 5863 5862 5861 5859 5858 5856 5854 5852 5850 5848 5845 5842 5840 5837 5833 5830 5827 5823 5820 5816 5812 5809 5805 5802 5798 5794 5790 5786 5782 5778
5883 5882 5880 5879 5877 5875 5873 5871 5869 5867 5865 5863 5862 5860 5859 5857 5856 5854 5852 5850 5848 5846 5843 5840 5837 5834 5831 5828 5824 5821 5817 5813 5809 5805 5801 5798 5794 5790 5786 5782 5777 5773 5769
5880 5878 5877 5875 5873 5871 5869 5867 5865 5864 5862 5860 5859 5857 5855 5854 5852 5850 5848 5845 5843 5841 5838 5835 5832 5829 5825 5822 5818 5814 5810 5806 5802 5798 5794 5790 5786 5782 5778 5773 5769 5765 5761
5876 5874 5873 5871 5869 5867 5865 5864 5862 5860 5858 5856 5855 5853 5851 5850 5848 5845 5843 5841 5838 5836 5833 5829 5826 5823 5819 5815 5811 5807 5803 5799 5795 5791 5786 5782 5778 5774 5770 5765 5761 5756 5752
5871 5870 5868 5866 5864 5863 5861 5860 5858 5856 5854 5852 5850 5848 5847 5845 5843 5841 5839 5836 5833 5830 5827 5824 5820 5817 5813 5809 5805 5800 5796 5792 5787 5783 5778 5774 5770 5766 5761 5756 5752 5748 5743
5866 5864 5863 5861 5859 5858 5856 5855 5853 5851 5849 5847 5845 5844 5842 5840 5838 5836 5833 5831 5828 5824 5821 5818 5814 5810 5806 5802 5798 5793 5789 5784 5780 5775 5771 5766 5762 5757 5752 5748 5743 5739 5734
5860 5859 5857 5856 5854 5853 5851 5849 5848 5846 5844 5842 5840 5838 5837 5835 5832 5830 5827 5824 5821 5818 5815 5811 5807 5803 5799 5795 5790 5786 5781 5777 5772 5767 5762 5758 5753 5748 5744 5739 5735 5730 5726
5854 5852 5851 5850 5848 5847 5845 5843 5842 5840 5838 5836 5834 5832 5830 5829 5826 5824 5821 5818 5815 5812 5808 5804 5800 5796 5792 5787 5783 5778 5773 5769 5764 5759 5754 5750 5745 5740 5735 5731 5726 5722 5717
5847 5846 5845 5844 5842 5840 5839 5837 5835 5833 5832 5830 5827 5825 5824 5822 5819 5817 5814 5811 5808 5804 5801 5797 5793 5789 5784 5780 5775 5770 5766 5761 5756 5751 5746 5741 5737 5732 5727 5722 5718 5713 5709
5840 5839 5838 5837 5835 5834 5832 5830 5828 5827 5825 5823 5821 5819 5817 5814 5812 5810 5807 5804 5801 5797 5793 5789 5785 5781 5777 5772 5767 5762 5758 5753 5748 5743 5738 5733 5729 5724 5719 5714 5709 5705 5701
5833 5832 5831 5829 5828 5827 5825 5823 5821 5819 5817 5816 5814 5811 5809 5807 5805 5802 5800 5796 5793 5789 5785 5782 5778 5773 5769 5764 5759 5754 5749 5744 5740 5735 5730 5725 5720 5715 5711 5706 5702 5697 5693
5825 5824 5823 5822 5820 5819 5817 5815 5813 5812 5810 5808 5806 5804 5802 5799 5797 5794 5792 5789 5785 5782 5778 5774 5769 5765 5760 5756 5751 5746 5741 5736 5731 5726 5721 5717 5712 5707 5703 5698 5693 5689 5685
5816 5816 5815 5814 5812 5811 5809 5807 5806 5804 5802 5800 5798 5796 5794 5791 5789 5786 5783 5780 5777 5773 5769 5765 5761 5757 5752 5747 5742 5737 5733 5728 5723 5718 5713 5708 5704 5699 5694 5690 5685 5681 5677
5808 5807 5806 5805 5804 5802 5801 5799 5797 5796 5794 5792 5790 5788 5786 5783 5781 5778 5775 5772 5768 5765 5761 5757 5752 5748 5743 5739 5734 5729 5724 5719 5714 5710 5705 5700 5696 5691 5686 5682 5678 5673 5669
5799 5798 5797 5796 5795 5793 5792 5790 5789 5787 5785 5783 5782 5780 5777 5775 5773 5770 5766 5763 5760 5756 5752 5748 5744 5740 5735 5730 5725 5721 5716 5711 5706 5701 5696 5692 5688 5683 5679 5674 5669 5665 5660
5789 5788 5787 5786 5786 5784 5783 5782 5780 5779 5777 5775 5773 5772 5769 5767 5764 5761 5758 5755 5751 5748 5744 5740 5736 5731 5727 5722 5717 5712 5707 5702 5698 5693 5688 5684 5679 5675 5670 5666 5661 5657 5652